Regional Weather Roundup
Issued by NWS Jackson, KY

Home | Current Version | Previous Version | Graphics & Text | Print | Product List | Glossary On
Versions: 1 2 3 4 5 6 7 8 9 10 11 12 13 14 15 16 17 18 19 20 21 22 23 24 25 26 27 28 29 30 31 32 33 34 35 36 37 38 39 40 41 42 43 44 45 46 47 48 49 50
000
ASUS43 KJKL 281310
RWRJKL

EAST KENTUCKY HOURLY WEATHER ROUNDUP
NATIONAL WEATHER SERVICE JACKSON KY
900 AM EDT SAT MAR 28 2015

NOTE: "FAIR" INDICATES FEW OR NO CLOUDS BELOW 12,000 FEET WITH
NO SIGNIFICANT WEATHER AND/OR OBSTRUCTIONS TO VISIBILITY.

* THESE REPORTS ARE NOT UNDER NWS QUALITY CONTROL AND MAY NOT
  REPORT WEATHER SUCH AS PRECIPITATION AND FOG.

KYZ079-080-083-085-087-088-110-112-115-119-120-281400
...EASTERN KENTUCKY...

CITY           SKY/WX    TMP DP  RH WIND       PRES   REMARKS
JACKSON        CLOUDY    25  16  68 VRB5      30.16R WCI  19
LONDON         PTSUNNY   28  14  55 N8        30.17R WCI  20
SOMERSET*      SUNNY     27  14  59 N6        30.22R WCI  20
MONTICELLO*    MOSUNNY   28  19  69 N9        30.23R WCI  19
MIDDLESBORO*   CLOUDY    29  14  55 N8        30.17R WCI  21
HAZARD APT*    FLURRIES  27  18  69 NW5       30.17R WCI  21
BLACK MTN*       N/A     14  14 100 N7          N/A  WCI   4
PIKEVILLE APT* CLOUDY    23   9  54 N8        30.14R WCI  14
BIG SANDY*     CLOUDY    26   8  47 N7        30.16R WCI  18
MOREHEAD APT*  SUNNY     27   9  46 N12       30.21R WCI  16
$$

KYZ035-036-041-042-044-050-067-078-099-281400
...CENTRAL KENTUCKY...

CITY           SKY/WX    TMP DP  RH WIND       PRES   REMARKS
MT STERLING*   SUNNY     27  19  74 N6        30.22R WCI  20
FLEMING/MASON* SUNNY     23  14  68 N9        30.24R WCI  13
DANVILLE*      MOSUNNY   25  14  63 N7        30.22R WCI  17
RICHMOND*      MOSUNNY   23  14  68 N7        30.19R WCI  15
LEXINGTON      SUNNY     23  15  71 N8        30.21R WCI  14
FRANKFORT      SUNNY     23  13  65 N7        30.22R WCI  15
$$

KYZ091>093-OHZ055-061-077-WVZ005-015-034-035-042-281400
...SOUTHERN OHIO/WEST VIRGINIA...

CITY           SKY/WX    TMP DP  RH WIND       PRES   REMARKS
COVINGTON      SUNNY     22  15  75 N8        30.23R WCI  12
COLUMBUS       MOSUNNY   19   9  65 N10       30.22R WCI   7
DAYTON         MOSUNNY   22  11  62 N13       30.24R WCI  10
WILMINGTON     CLOUDY    21  13  71 NE12      30.21R WCI   9
HUNTINGTON     SUNNY     24  13  62 N7        30.19R WCI  16
CHARLESTON     PTSUNNY   23  12  62 N8G17     30.16R WCI  14
PINEVILLE*     SUNNY     25   7  46 MISG      30.13R
BECKLEY        MOSUNNY   19   2  47 W20G29    30.01R WCI   3
BLUEFIELD      PTSUNNY   20   3  48 NW12      29.98R WCI   8
$$

VAZ002-007-008-TNZ017-027-036-066-071-281400
...SOUTHWEST VIRGINIA/EAST TENNESSEE...

CITY           SKY/WX    TMP DP  RH WIND       PRES   REMARKS
WISE*          CLOUDY    23  14  68 NW10      30.04R WCI  12
JONESVILLE*    CLOUDY    28  10  47 W6        30.15R WCI  22
ABINGDON*      CLOUDY    26  16  65 NW10      30.06R WCI  16
BRISTOL        MOSUNNY   28   9  44 N9        30.10R WCI  19
KNOXVILLE      MOSUNNY   33  18  53 N10       30.15R WCI  25
OAK RIDGE      SUNNY     33  16  49 VRB7      30.17R WCI  27
CROSSVILLE     CLOUDY    29  20  69 N8        30.12R WCI  21
NASHVILLE      PTSUNNY   31  15  52 NE12      30.23R WCI  22
$$

...KEY TO REMARKS...
VSB - VISIBILITY IN MILES
WCI - WIND CHILL INDEX
HX  - HEAT INDEX

$$



USA.gov is the U.S. government's official web portal to all federal, state and local government web resources and services.